When you browse on this site, cookies collect data to enhance your experience and personalize the content and advertising you see.
Visit our Privacy Policy to learn more. By continuing to use the site, you agree to this use of cookies and data.
  • Em Portugal
  • Lista de países
  • Para 7 dias
  • Temperatura da água
  • Mapa do tempo
  • Widgets de tempo
  • user-avatar
    Iniciar Sessão

    Previsão horária em Rogi

    Hoje, 24 Janeiro, Sexta-feira

    Tempo Temperatura Precipitação Vento Pressão Humidade
    00:00 -5°C° 0.1 mm 4 m/s 736 mmHg 81%
    01:00 -5°C° 0.1 mm 4 m/s 735 mmHg 86%
    02:00 -4°C° 0 mm 4 m/s 734 mmHg 92%
    03:00 -4°C° 0.1 mm 4 m/s 733 mmHg 91%
    04:00 -4°C° 0.1 mm 4 m/s 732 mmHg 90%
    05:00 -5°C° 0.1 mm 5 m/s 731 mmHg 89%
    06:00 -4°C° 0.5 mm 5 m/s 731 mmHg 91%
    07:00 -4°C° 0.5 mm 5 m/s 730 mmHg 94%
    08:00 -2°C° 0.5 mm 5 m/s 730 mmHg 96%
    09:00 -2°C° 0.1 mm 5 m/s 729 mmHg 95%
    10:00 -1°C° 0.1 mm 5 m/s 729 mmHg 93%
    11:00 0°C° 0.1 mm 5 m/s 728 mmHg 92%
    12:00 0°C° 0.4 mm 5 m/s 728 mmHg 93%
    13:00 0°C° 0.4 mm 5 m/s 728 mmHg 94%
    14:00 0°C° 0.4 mm 5 m/s 727 mmHg 95%
    15:00 0°C° 0.1 mm 5 m/s 727 mmHg 94%
    16:00 0°C° 0.1 mm 5 m/s 727 mmHg 92%
    17:00 0°C° 0.1 mm 4 m/s 727 mmHg 91%
    18:00 -1°C° 0 mm 4 m/s 727 mmHg 92%
    19:00 0°C° 0 mm 3 m/s 727 mmHg 93%
    20:00 -1°C° 0 mm 3 m/s 727 mmHg 94%
    21:00 -1°C° 0.4 mm 3 m/s 727 mmHg 95%
    22:00 -1°C° 0.4 mm 3 m/s 727 mmHg 95%
    23:00 -1°C° 0.4 mm 3 m/s 727 mmHg 96%

    Amanhã, 25 Janeiro, Sábado

    Tempo Temperatura Precipitação Vento Pressão Humidade
    00:00 -1°C° 0 mm 3 m/s 727 mmHg 95%
    01:00 -1°C° 0 mm 3 m/s 727 mmHg 93%
    02:00 -2°C° 0 mm 4 m/s 727 mmHg 91%
    03:00 -2°C° 0 mm 4 m/s 727 mmHg 91%
    04:00 -2°C° 0 mm 4 m/s 726 mmHg 91%
    05:00 -2°C° 0 mm 4 m/s 726 mmHg 91%
    06:00 -1°C° 0 mm 4 m/s 726 mmHg 88%
    07:00 -1°C° 0 mm 5 m/s 725 mmHg 86%
    08:00 -1°C° 0 mm 5 m/s 725 mmHg 83%
    09:00 -2°C° 0.2 mm 6 m/s 725 mmHg 81%
    10:00 -2°C° 0.2 mm 7 m/s 724 mmHg 80%
    11:00 -2°C° 0.2 mm 7 m/s 724 mmHg 78%
    12:00 -3°C° 0.4 mm 7 m/s 725 mmHg 74%
    13:00 -3°C° 0.4 mm 7 m/s 725 mmHg 70%
    14:00 -3°C° 0.4 mm 7 m/s 725 mmHg 66%
    15:00 -4°C° 0 mm 7 m/s 726 mmHg 71%
    16:00 -4°C° 0 mm 7 m/s 726 mmHg 76%
    17:00 -5°C° 0 mm 6 m/s 727 mmHg 81%
    18:00 -6°C° 0.1 mm 7 m/s 727 mmHg 82%
    19:00 -6°C° 0.1 mm 7 m/s 728 mmHg 83%
    20:00 -6°C° 0.1 mm 7 m/s 728 mmHg 83%
    21:00 -6°C° 0.1 mm 7 m/s 729 mmHg 81%
    22:00 -5°C° 0.1 mm 6 m/s 730 mmHg 80%
    23:00 -5°C° 0.1 mm 6 m/s 731 mmHg 78%

    Depois de amanhã, 26 Janeiro, Domingo

    Tempo Temperatura Precipitação Vento Pressão Humidade
    00:00 -5°C° 0 mm 6 m/s 732 mmHg 79%
    01:00 -6°C° 0 mm 5 m/s 733 mmHg 79%
    02:00 -6°C° 0 mm 5 m/s 733 mmHg 80%
    03:00 -5°C° 0 mm 4 m/s 734 mmHg 82%
    04:00 -5°C° 0 mm 4 m/s 734 mmHg 83%
    05:00 -5°C° 0 mm 4 m/s 735 mmHg 85%
    06:00 -5°C° 0 mm 4 m/s 735 mmHg 85%
    07:00 -5°C° 0 mm 3 m/s 735 mmHg 85%
    08:00 -5°C° 0 mm 3 m/s 735 mmHg 85%
    09:00 -5°C° 0 mm 3 m/s 735 mmHg 82%
    10:00 -4°C° 0 mm 3 m/s 735 mmHg 79%
    11:00 -4°C° 0 mm 3 m/s 735 mmHg 76%
    12:00 -3°C° 0.1 mm 4 m/s 735 mmHg 81%
    13:00 -3°C° 0.1 mm 4 m/s 734 mmHg 87%
    14:00 -4°C° 0.1 mm 5 m/s 734 mmHg 92%
    15:00 -2°C° 0.3 mm 5 m/s 733 mmHg 93%
    16:00 -1°C° 0.3 mm 5 m/s 733 mmHg 95%
    17:00 0°C° 0.3 mm 5 m/s 732 mmHg 96%
    18:00 0°C° 0 mm 5 m/s 732 mmHg 94%
    19:00 +1°C° 0 mm 5 m/s 732 mmHg 92%
    20:00 +1°C° 0 mm 6 m/s 733 mmHg 90%
    21:00 +1°C° 0 mm 5 m/s 733 mmHg 90%
    22:00 +1°C° 0 mm 5 m/s 733 mmHg 91%
    23:00 +1°C° 0 mm 5 m/s 733 mmHg 91%

    27 Janeiro, Segunda-feira

    Tempo Temperatura Precipitação Vento Pressão Humidade
    00:00 +1°C° 0.1 mm 5 m/s 734 mmHg 91%
    01:00 +1°C° 0.1 mm 5 m/s 734 mmHg 92%
    02:00 +1°C° 0.1 mm 4 m/s 734 mmHg 93%
    03:00 +1°C° 0.1 mm 4 m/s 734 mmHg 93%
    04:00 +1°C° 0.1 mm 4 m/s 734 mmHg 94%
    05:00 0°C° 0.1 mm 4 m/s 735 mmHg 95%
    06:00 +1°C° 0.2 mm 3 m/s 735 mmHg 95%
    07:00 +1°C° 0.2 mm 3 m/s 735 mmHg 96%
    08:00 +1°C° 0.2 mm 3 m/s 735 mmHg 97%
    09:00 +1°C° 0.2 mm 3 m/s 736 mmHg 97%
    10:00 +2°C° 0.2 mm 2 m/s 736 mmHg 97%
    11:00 +2°C° 0.2 mm 2 m/s 736 mmHg 97%
    12:00 +2°C° 0.1 mm 2 m/s 736 mmHg 98%
    13:00 +2°C° 0.1 mm 2 m/s 736 mmHg 98%
    14:00 +2°C° 0.1 mm 2 m/s 736 mmHg 98%
    15:00 +2°C° 0.2 mm 2 m/s 736 mmHg 98%
    16:00 +2°C° 0.2 mm 2 m/s 736 mmHg 98%
    17:00 +2°C° 0.2 mm 2 m/s 736 mmHg 98%
    18:00 +2°C° 0.2 mm 2 m/s 737 mmHg 98%
    19:00 +2°C° 0.2 mm 2 m/s 737 mmHg 98%
    20:00 +2°C° 0.2 mm 2 m/s 737 mmHg 98%
    21:00 +1°C° 0.2 mm 2 m/s 737 mmHg 98%
    22:00 +1°C° 0.2 mm 2 m/s 737 mmHg 98%
    23:00 +1°C° 0.2 mm 2 m/s 737 mmHg 98%

    28 Janeiro, Terça-feira

    Tempo Temperatura Precipitação Vento Pressão Humidade
    00:00 +1°C° 0.1 mm 2 m/s 737 mmHg 98%
    01:00 +1°C° 0.1 mm 2 m/s 736 mmHg 98%
    02:00 +1°C° 0.1 mm 2 m/s 736 mmHg 98%
    03:00 +1°C° 0.2 mm 2 m/s 736 mmHg 98%
    04:00 +1°C° 0.2 mm 2 m/s 736 mmHg 98%
    05:00 +2°C° 0.2 mm 1 m/s 736 mmHg 98%
    06:00 +2°C° 0.1 mm 1 m/s 736 mmHg 98%
    07:00 +2°C° 0.1 mm 1 m/s 736 mmHg 98%
    08:00 +2°C° 0.1 mm 1 m/s 736 mmHg 98%
    09:00 +2°C° 0 mm 1 m/s 737 mmHg 98%
    10:00 +2°C° 0 mm 1 m/s 737 mmHg 98%
    11:00 +2°C° 0 mm 1 m/s 737 mmHg 97%
    12:00 +2°C° 0 mm 1 m/s 737 mmHg 97%
    13:00 +2°C° 0 mm 1 m/s 737 mmHg 97%
    14:00 +2°C° 0 mm 1 m/s 737 mmHg 97%
    15:00 +1°C° 0 mm 2 m/s 737 mmHg 97%
    16:00 +1°C° 0 mm 2 m/s 737 mmHg 96%
    17:00 -1°C° 0 mm 2 m/s 737 mmHg 96%
    18:00 -1°C° 0 mm 2 m/s 737 mmHg 95%
    19:00 -1°C° 0 mm 2 m/s 737 mmHg 94%
    20:00 -1°C° 0 mm 3 m/s 736 mmHg 93%
    21:00 -1°C° 0 mm 3 m/s 736 mmHg 94%
    22:00 -1°C° 0 mm 3 m/s 736 mmHg 95%
    23:00 -1°C° 0 mm 3 m/s 736 mmHg 95%

    29 Janeiro, Quarta-feira

    Tempo Temperatura Precipitação Vento Pressão Humidade
    00:00 -1°C° 0 mm 3 m/s 736 mmHg 95%
    01:00 -1°C° 0 mm 3 m/s 736 mmHg 94%
    02:00 -1°C° 0 mm 3 m/s 736 mmHg 94%
    03:00 -1°C° 0.1 mm 3 m/s 735 mmHg 95%
    04:00 -1°C° 0.1 mm 3 m/s 735 mmHg 96%
    05:00 0°C° 0.1 mm 3 m/s 735 mmHg 97%
    06:00 -1°C° 0.1 mm 4 m/s 735 mmHg 96%
    07:00 -1°C° 0.1 mm 4 m/s 734 mmHg 96%
    08:00 -1°C° 0.1 mm 4 m/s 734 mmHg 95%
    09:00 -1°C° 0.1 mm 4 m/s 734 mmHg 95%
    10:00 -1°C° 0.1 mm 4 m/s 734 mmHg 96%
    11:00 -1°C° 0.1 mm 4 m/s 734 mmHg 96%
    12:00 -1°C° 0.1 mm 4 m/s 734 mmHg 95%
    13:00 -1°C° 0.1 mm 4 m/s 733 mmHg 95%
    14:00 -1°C° 0.1 mm 5 m/s 733 mmHg 95%
    15:00 -1°C° 0 mm 5 m/s 733 mmHg 94%
    16:00 -1°C° 0 mm 5 m/s 733 mmHg 94%
    17:00 -1°C° 0 mm 5 m/s 732 mmHg 94%
    18:00 -1°C° 0 mm 4 m/s 732 mmHg 94%
    19:00 -1°C° 0 mm 4 m/s 732 mmHg 93%
    20:00 -2°C° 0 mm 4 m/s 732 mmHg 93%
    21:00 -2°C° 0 mm 4 m/s 731 mmHg 93%
    22:00 -1°C° 0 mm 4 m/s 731 mmHg 93%
    23:00 -1°C° 0 mm 4 m/s 731 mmHg 93%
    Mostrar mais